Location: Grand Moustoir
(47.8355°N, 3.3120°W)
Time: 09:45:38
(UTC+00:00)

Helios 1A Rocket - Pass Details

Date: 20 January 2020
Orbit: 565 x 586 km, 98.3° (Epoch: 18 February)

Event Time Altitude Azimuth Distance (km) Brightness Sun altitude
Rises 05:59:39 0° 17° (NNE) 2,804 6.5 -18.9°
Reaches altitude 10° 06:01:50 10° 21° (NNE) 1,903 5.7 -18.5°
Maximum altitude 06:05:55 62° 102° (ESE) 661 3.4 -17.8°
Drops below altitude 10° 06:10:00 10° 183° (S) 1,898 5.6 -17.2°
Sets 06:12:10 0° 187° (S) 2,795 6.5 -16.8°
